SCP
-0 -0 -0 0 0 0 0 0 0 0 0 0 0 0 0 0 0 0 0 0 0 0 0 0 0 0 0 0 0 0 0 0 0 0 0 0 0 0 0 0 0 0 0 0 0 0 0
-0 -0 -0 -0 0 0 0 0 0 0 0 0 0 0 0 0 0 0 0 0 0 0 0 0 0 0 0 0 0 0 0 0 0 0 0 0 0 0 0 0 0 0 0 0 0 0 0
-0 0 0 0 0 0 0 0 0 0 0 0 0 0 0 0 0 0 0 0 0 0 0 0 0 0 0 0 0 0 0 0 0 0 0 0 0 0 0 0 0 0 0 0 0 0 0
0 0 0 0 0 0 0 0 0 0 0 0 0 0 0 0 0 0 0 0 0 0 0 0 0 0 0 0 0 0 0 0 0 0 0 0 0 0 0 0 0 0 0 0 0 0 0
0 0 0 0 0 0 0 0 0 0 0 0 0 0 0 0 0 0 0 0 0 0 0 0 0 0 0 0 0 0 0 0 0 0 0 0 0 0 0 0 0 0 0 0 0 0 0
0 0 0 0 0 0 0 0 0 0 0 0 0 0 0 0 0 0 0 0 0 0 0 0 0 0 0 0 0 0 0 0 0 0 0 0 0 0 0 0 0 0 0 0 -0 0 0
0 0 0 0 0 0 0 0 0 0 0 0 0 0 0 0 0 0 0 -0 0 0 0 0 0 0 0 0 0 0 0 0 0 0 0 0 0 0 0 0 0 0 0 0 -0 0 0
0 0 0 0 0 0 0 0 0 0 0 0 0 0 0 0 0 0 0 0 -0 0 0 0 0 0 0 0 0 0 0 0 0 0 0 0 0 0 0 0 0 0 0 -0 -0 0 -0
0 0 0 0 0 0 0 0 0 0 0 0 0 0 0 0 0 0 0 0 0 0 -0 -0 0 0 0 0 0 0 0 0 0 0 0 0 0 0 0 0 0 0 0 -0 -0 0 -0
0 0 0 0 -0 0 0 -0 0 0 0 0 0 0 0 0 0 0 0 0 0 0 -0 -0 -0 -0 0 0 0 0 0 0 0 0 0 0 0 0 0 0 0 0 0 0 0 0 0
0 0 0 0 0 0 0 0 0 0 0 0 0 0 0 0 0 0 0 0 0 0 0 0 0 0 0 0 0 0 0 0 0 0 0 0 0 0 0 0 0 0 0 0 0 0 0
0 0 0 0 0 0 0 0 0 0 0 0 0 0 0 0 0 0 0 0 0 0 0 0 0 0 0 0 0 0 0 0 0 0 0 0 0 0 0 0 0 0 0 0 0 0 -0
0 0 0 0 0 0 0 0 0 0 0 0 0 0 0 0 0 0 0 0 0 0 0 0 0 0 0 0 0 0 0 0 0 0 0 0 0 0 0 0 0 0 0 0 0 0 0
0 0 0 0 0 0 0 0 0 0 0 0 0 0 0 0 0 0 0 0 0 0 0 0 -0 0 0 0 0 0 0 0 0 0 0 0 0 0 0 0 0 0 0 0 0 0 0
0 0 0 0 0 0 0 0 0 0 0 0 0 0 0 0 0 0 0 0 0 0 0 0 -0 -0 0 0 0 0 0 0 0 0 0 0 0 0 0 0 0 0 0 0 0 0 0
-0 0 0 0 0 0 0 0 0 0 0 0 0 0 0 0 0 0 0 0 0 0 0 0 -0 -0 0 0 0 0 0 0 0 0 0 0 0 0 0 0 0 0 0 0 0 0 0
-0 0 0 0 0 0 0 0 0 0 0 0 0 0 0 0 0 0 0 0 0 0 0 0 0 -0 -0 -0 -0 0 0 0 0 0 0 0 0 0 0 0 0 0 0 0 0 0 0
-0 0 0 0 0 0 0 0 0 0 0 0 0 0 0 0 0 0 -0 0 -0 0 0 0 0 -0 -0 -0 -0 -0 0 0 0 0 0 0 0 0 0 0 0 0 0 0 0 0 0
0 0 0 0 0 0 0 0 0 0 0 0 0 0 0 -0 0 0 0 0 -0 -0 -0 0 0 0 0 0 -0 -0 0 0 0 0 0 0 0 0 0 0 0 0 0 -0 0 0 0
0 0 0 0 0 0 0 0 0 0 0 0 0 0 0 0 -0 -0 -0 -0 0 0 0 0 -0 -0 -0 0 0 -0 -0 -0 0 0 0 0 0 0 0 0 0 0 0 0 0 0 0
0 0 0 0 0 0 0 0 0 0 0 0 0 0 0 0 0 0 -0 -0 0 -0 -0 0 0 -0 0 -0 0 -0 -0 -0 0 0 0 0 0 0 -0 0 0 0 0 0 0 0 0
0 0 0 0 0 0 0 0 0 0 0 0 0 0 0 -0 -0 -0 0 -0 -0 -0 0 0 0 0 0 -0 -0 0 0 -0 -0 0 0 0 0 0 -0 -0 0 0 0 0 0 0 -0
0 0 0 0 0 0 0 0 0 0 0 0 0 0 0 0 -0 -0 -0 -0 -0 -0 -0 0 -0 -0 0 0 -0 -0 -0 -0 -0 -0 0 0 0 0 0 0 -0 0 0 0 0 0 0
0 0 0 0 0 0 0 0 0 0 0 0 0 0 0 0 0 -0 -0 -0 0 0 -0 0 0 -0 -0 -0 -0 -0 -0 -0 -0 -0 -0 0 0 0 0 0 0 -0 -0 0 0 0 0
0 0 0 0 0 0 0 0 0 0 0 0 0 0 0 0 0 -0 0 -0 -0 0 0 0 0 -0 -0 -0 -0 -0 -0 -0 -0 -0 -0 0 0 0 0 0 0 0 0 0 0 0 0
0 0 0 0 0 0 0 0 0 0 0 0 0 0 0 0 0 0 0 0 -0 0 0 0 0 -0 -0 0 -0 -0 -0 -0 -0 -0 0 0 0 0 0 0 0 0 0 0 0 0 0
0 0 0 0 0 0 0 0 0 0 0 0 0 0 0 0 0 0 0 0 0 0 0 0 0 0 0 0 -0 -0 -0 0 -0 0 0 0 0 0 0 0 0 0 0 0 0 0 0
0 0 0 0 0 0 0 0 0 0 0 0 0 0 0 0 0 0 0 0 0 0 0 0 0 0 -0 0 0 0 -0 0 0 -0 -0 0 0 0 0 0 0 0 0 0 0 0 0
0 0 0 0 0 0 0 0 0 0 0 0 0 0 0 0 0 0 -0 -0 -0 -0 0 0 0 0 -0 0 0 0 0 0 -0 -0 -0 0 0 0 0 0 0 0 0 0 0 0 0
Wind_Speed_500mb
27 29 31 32 36 38 38 39 39 39 40 38 38 39 39 41 45 46 48 49 50 53 55 53 51 51 42 33 54 19 39 32 17 10 35 55 47 40 17 13 11 15 26 50 54 57 61
30 30 29 30 29 32 34 37 39 39 39 42 44 41 42 42 42 41 42 45 50 51 49 48 40 38 40 30 70 67 60 53 36 27 18 54 31 39 8 16 10 19 26 40 40 53 62
35 35 34 33 37 39 37 37 38 40 42 42 43 44 44 44 45 46 47 46 45 46 51 51 36 34 50 95 47 43 59 77 76 62 54 39 59 20 15 11 37 37 31 31 26 42 28
36 36 36 36 38 39 38 37 38 40 41 41 43 45 47 47 48 47 49 49 51 53 44 39 36 31 44 63 47 87 75 48 57 66 68 64 43 47 43 23 18 10 7 14 19 34 43
39 41 41 39 38 41 43 42 41 42 43 44 44 46 49 50 51 50 53 55 54 55 55 38 28 26 37 31 64 83 82 80 64 49 46 26 41 31 8 11 9 7 28 34 39 28 12
40 40 42 43 43 43 43 44 46 48 48 50 51 48 47 49 53 52 55 56 48 30 23 15 23 10 45 35 30 52 58 69 58 36 47 37 23 12 9 10 30 25 16 15 31 5 18
45 45 45 45 45 45 44 45 47 47 44 46 48 51 55 52 48 48 55 54 17 3 13 20 17 30 5 31 25 17 20 38 50 32 22 33 16 37 52 42 25 21 11 19 33 3 15
46 46 48 47 49 46 43 46 48 47 46 49 49 48 48 51 55 44 44 20 14 23 29 46 60 72 89 69 26 18 32 25 27 35 19 12 60 42 32 30 29 19 22 31 38 12 13
43 44 44 47 46 45 43 46 48 46 48 51 50 49 49 47 50 48 29 22 20 41 14 29 58 49 78 70 38 35 35 26 13 27 51 59 42 34 40 32 32 36 36 33 39 6 14
43 43 44 45 46 43 46 49 49 47 48 50 50 47 46 50 39 21 26 2 27 16 9 15 14 17 27 43 30 85 39 25 14 38 39 38 38 46 33 48 31 38 28 34 35 7 16
43 44 46 46 46 49 52 53 50 47 48 49 48 47 45 39 45 40 20 31 19 10 10 4 8 8 14 36 23 46 71 51 25 19 19 24 36 45 39 39 42 33 24 19 27 16 10
47 47 49 48 49 52 54 54 50 48 46 48 48 49 48 48 37 28 18 21 6 6 16 12 11 21 9 27 42 13 42 61 33 9 15 19 30 47 42 33 40 17 4 5 22 6 21
50 48 45 46 50 57 58 57 54 51 49 52 51 50 46 41 39 28 27 12 6 11 8 2 20 30 17 23 16 19 19 35 34 26 32 11 26 10 21 30 13 25 13 8 6 9 13
51 48 46 47 53 59 59 59 55 56 54 52 56 48 43 33 23 18 3 3 12 10 24 29 33 27 11 35 16 23 22 26 46 29 21 29 22 44 29 29 25 27 28 11 10 7 9
48 49 50 51 55 58 57 58 57 58 55 54 51 48 21 26 6 16 9 9 7 6 13 23 28 14 12 28 14 20 12 26 16 37 13 25 31 4 38 11 31 33 30 25 4 5 3
48 50 52 54 56 56 55 56 58 58 55 54 52 38 16 23 12 18 1 10 8 12 20 20 12 13 21 26 18 26 11 22 23 14 5 5 9 17 36 40 34 18 21 15 11 11 10
49 51 53 57 58 58 53 55 58 58 57 52 36 16 16 4 20 5 4 9 9 27 27 10 11 15 18 22 7 14 11 16 35 36 21 7 4 6 18 30 37 17 22 9 14 10 11
48 51 55 58 60 57 55 57 56 58 57 56 17 6 17 10 3 2 3 8 11 17 21 12 11 18 21 21 17 7 17 19 32 29 18 11 10 10 21 10 39 38 33 18 21 18 11
50 53 57 59 61 61 56 53 55 54 53 53 23 10 14 4 3 2 6 11 11 14 18 8 8 8 22 23 13 2 11 19 28 29 27 15 10 14 12 4 6 46 41 44 6 7 14
51 54 58 61 63 62 56 49 51 49 46 42 12 6 9 7 6 5 9 11 7 21 20 15 12 9 19 19 19 14 24 18 39 42 28 14 9 26 28 6 11 27 45 17 33 18 15
54 54 57 63 64 61 56 46 46 45 42 27 10 6 7 6 8 13 5 8 13 16 11 25 8 9 6 11 16 24 26 29 26 34 8 7 9 11 35 40 17 8 23 45 36 27 31
56 56 55 59 62 59 56 43 39 44 37 16 11 9 10 16 20 9 6 4 17 13 6 14 9 16 7 9 15 19 27 19 15 12 12 9 8 13 13 35 47 36 11 41 45 29 24
58 60 56 55 58 57 53 48 33 38 35 12 14 15 12 10 10 5 5 10 18 25 13 23 27 20 14 22 21 37 41 39 24 12 12 9 7 19 11 27 17 29 53 24 25 37 35
59 61 59 54 54 55 50 51 34 27 29 24 15 19 7 7 5 6 16 25 24 23 17 32 35 8 8 43 57 31 34 26 15 18 21 18 2 5 10 4 22 37 23 35 23 16 28
59 60 61 55 52 53 56 51 42 21 23 24 17 13 5 7 14 23 15 15 33 34 12 24 35 35 42 19 6 8 4 6 17 28 26 34 10 6 6 8 10 14 7 24 19 25 21
59 61 62 57 52 59 60 55 46 22 18 25 20 14 21 10 7 19 23 25 12 8 11 12 43 21 15 4 4 6 5 4 6 3 13 21 22 11 4 8 15 11 28 5 11 26 18
60 61 62 57 56 65 61 55 40 24 17 23 23 12 20 15 30 17 13 15 14 8 8 16 19 14 22 5 2 5 7 1 5 4 5 6 8 18 11 8 8 36 40 26 25 5 38
62 63 59 53 65 67 62 51 33 22 16 22 24 15 18 19 57 51 44 21 27 30 6 15 18 2 6 7 4 5 4 1 4 5 9 4 9 7 8 9 6 43 15 15 22 55 51
64 62 52 59 68 67 62 49 30 22 16 21 30 13 16 32 52 69 78 67 64 45 42 12 6 5 5 2 2 6 4 4 4 5 7 6 4 4 7 5 3 37 18 39 47 46 52
Wind_Direction_500mb
8 3 4 359 359 355 351 347 345 345 343 340 337 336 334 323 313 307 298 285 277 274 274 275 275 274 274 243 236 205 199 199 234 267 230 203 201 208 220 203 234 191 245 247 263 278 278
7 1 357 352 344 338 340 340 341 341 339 337 333 330 329 328 325 319 312 303 291 280 274 273 276 279 272 249 254 246 230 230 235 255 248 211 211 213 240 241 222 251 256 268 266 263 273
5 3 358 349 343 342 337 335 333 333 333 331 330 330 328 325 320 320 319 311 302 290 281 275 274 272 257 247 245 246 242 248 242 242 239 237 226 198 222 300 282 278 284 280 260 266 261
357 353 351 347 345 342 339 335 331 328 327 325 324 322 320 321 320 320 317 314 304 298 286 283 269 263 256 258 261 249 243 240 230 234 234 232 240 247 239 256 312 337 292 271 270 253 257
353 352 348 346 343 338 337 335 332 331 327 325 323 322 321 318 313 313 314 311 310 297 277 260 255 234 275 273 253 257 244 239 233 230 221 223 219 220 190 202 309 255 260 264 278 251 260
350 346 344 339 335 331 333 331 328 327 327 326 325 323 319 318 318 314 310 313 317 307 281 196 222 241 253 248 268 254 251 235 228 232 221 209 206 178 149 151 222 218 230 259 255 140 226
355 352 350 346 342 335 333 330 327 327 323 321 320 321 322 321 316 318 312 332 342 323 314 224 215 218 101 27 237 280 233 198 205 205 183 176 196 206 207 206 225 236 222 246 260 193 233
353 350 345 343 339 340 337 333 332 329 328 326 322 319 317 318 316 318 308 306 19 327 299 284 267 248 260 272 297 251 215 151 176 202 158 167 226 207 204 208 217 241 247 253 283 272 245
355 350 344 340 348 344 341 338 336 333 330 327 323 320 319 316 312 312 294 300 334 335 266 277 252 243 237 242 227 251 198 178 172 187 192 203 225 200 203 206 203 222 230 246 250 333 265
1 357 357 354 350 347 343 340 337 334 332 329 326 323 322 318 314 302 310 297 323 312 286 272 217 251 220 216 227 233 218 186 188 200 199 230 224 196 198 212 197 224 215 242 259 276 264
4 358 356 356 354 351 346 342 336 333 330 328 327 325 321 317 300 294 307 303 306 164 296 230 134 34 282 184 153 220 215 215 209 165 171 210 184 212 211 205 200 230 224 226 247 234 258
3 0 358 358 359 357 350 345 339 332 330 330 330 327 318 311 296 326 320 317 303 182 244 308 63 350 43 221 244 281 174 207 209 223 229 214 202 201 213 202 208 206 248 261 252 239 254
4 2 4 4 2 356 351 345 337 331 326 325 324 325 312 297 280 308 311 323 206 223 285 28 354 341 340 337 218 243 240 190 187 196 215 163 222 223 176 206 173 202 130 254 276 219 229
7 4 4 0 357 355 352 352 349 343 334 329 327 325 318 313 297 275 333 144 236 249 256 350 352 330 54 7 342 340 234 206 215 195 187 203 210 211 179 197 193 212 182 172 200 209 193
7 4 2 358 355 354 354 353 348 350 350 343 337 335 359 353 240 163 186 208 238 307 18 348 337 351 353 355 340 351 331 239 226 216 185 200 229 180 188 150 173 201 206 181 30 291 132
7 6 3 -0 357 354 354 354 353 352 353 345 339 340 8 353 160 158 146 258 292 333 352 2 6 354 331 335 350 4 312 33 348 297 195 276 193 218 202 197 202 173 161 174 200 204 219
8 5 2 360 359 357 354 353 353 353 355 352 346 343 4 90 161 147 219 235 296 303 316 338 327 309 300 300 0 357 295 318 14 347 321 200 145 263 196 203 182 176 179 177 156 199 174
6 4 3 1 360 357 353 352 351 353 355 356 355 342 344 164 75 225 275 317 321 301 302 280 256 246 273 315 312 315 271 323 357 2 351 284 209 207 235 250 193 204 199 188 194 194 240
5 2 360 359 357 356 354 354 353 354 354 353 350 309 355 237 65 348 256 269 263 276 279 273 292 308 291 287 317 348 295 313 317 9 338 330 275 251 339 211 183 199 198 215 149 102 190
2 0 358 357 356 355 353 355 356 358 357 354 359 336 338 39 52 292 330 288 290 305 299 263 260 295 290 287 270 284 282 286 305 315 336 334 280 234 218 238 139 196 204 173 194 217 211
354 356 355 352 353 354 354 355 355 355 358 5 14 313 331 313 324 311 279 286 308 321 288 278 288 231 312 279 298 280 274 289 279 307 334 33 276 307 266 252 275 189 189 201 204 198 202
346 347 350 350 349 352 352 353 357 357 0 21 4 339 330 289 295 289 280 280 309 325 272 319 301 314 303 255 257 283 290 285 287 290 345 347 283 323 259 243 241 250 248 202 215 209 227
345 342 345 349 346 346 351 350 353 356 1 13 337 323 310 290 314 347 258 339 301 318 263 231 280 304 270 259 272 290 279 270 243 212 247 295 336 351 278 230 239 252 239 225 208 206 199
348 345 343 349 347 344 346 348 347 347 346 345 354 323 295 286 263 248 288 302 293 303 275 283 294 259 251 312 310 284 252 241 219 217 225 254 85 238 276 203 206 247 222 223 212 215 215
349 347 343 345 346 344 343 342 342 330 332 332 327 305 274 276 278 294 300 296 305 297 267 283 290 299 304 299 264 278 203 210 241 234 222 221 181 265 251 249 275 235 234 195 176 245 212
346 346 343 342 344 343 342 340 335 329 309 311 323 295 269 290 262 301 307 285 297 307 321 270 318 339 341 207 198 242 246 319 186 211 358 252 188 195 276 237 212 32 331 342 119 239 208
345 345 343 341 344 342 341 338 330 324 306 295 302 299 279 262 279 272 268 294 288 283 276 295 325 338 354 22 149 218 235 171 210 119 49 90 127 225 262 287 296 345 325 304 183 258 320
346 346 344 344 345 343 343 342 330 318 298 289 294 273 262 264 288 268 261 248 266 290 262 302 330 8 319 23 306 318 303 271 101 73 96 351 313 183 200 240 252 348 17 49 313 321 308
348 348 347 346 346 344 345 345 330 321 304 275 289 296 261 275 266 294 289 278 267 268 261 258 257 286 254 315 328 291 279 301 191 165 202 208 197 323 271 267 44 345 342 333 328 326 324
Wind_Speed_850mb
27 29 31 32 36 38 38 39 39 39 40 38 38 39 39 41 45 46 48 49 50 53 55 53 51 51 42 33 54 19 39 32 17 10 35 55 47 40 17 13 11 15 26 50 54 57 61
30 30 29 30 29 32 34 37 39 39 39 42 44 41 42 42 42 41 42 45 50 51 49 48 40 38 40 30 70 67 60 53 36 27 18 54 31 39 8 16 10 19 26 40 40 53 62
35 35 34 33 37 39 37 37 38 40 42 42 43 44 44 44 45 46 47 46 45 46 51 51 36 34 50 95 47 43 59 77 76 62 54 39 59 20 15 11 37 37 31 31 26 42 28
36 36 36 36 38 39 38 37 38 40 41 41 43 45 47 47 48 47 49 49 51 53 44 39 36 31 44 63 47 87 75 48 57 66 68 64 43 47 43 23 18 10 7 14 19 34 43
39 41 41 39 38 41 43 42 41 42 43 44 44 46 49 50 51 50 53 55 54 55 55 38 28 26 37 31 64 83 82 80 64 49 46 26 41 31 8 11 9 7 28 34 39 28 12
40 40 42 43 43 43 43 44 46 48 48 50 51 48 47 49 53 52 55 56 48 30 23 15 23 10 45 35 30 52 58 69 58 36 47 37 23 12 9 10 30 25 16 15 31 5 18
45 45 45 45 45 45 44 45 47 47 44 46 48 51 55 52 48 48 55 54 17 3 13 20 17 30 5 31 25 17 20 38 50 32 22 33 16 37 52 42 25 21 11 19 33 3 15
46 46 48 47 49 46 43 46 48 47 46 49 49 48 48 51 55 44 44 20 14 23 29 46 60 72 89 69 26 18 32 25 27 35 19 12 60 42 32 30 29 19 22 31 38 12 13
43 44 44 47 46 45 43 46 48 46 48 51 50 49 49 47 50 48 29 22 20 41 14 29 58 49 78 70 38 35 35 26 13 27 51 59 42 34 40 32 32 36 36 33 39 6 14
43 43 44 45 46 43 46 49 49 47 48 50 50 47 46 50 39 21 26 2 27 16 9 15 14 17 27 43 30 85 39 25 14 38 39 38 38 46 33 48 31 38 28 34 35 7 16
43 44 46 46 46 49 52 53 50 47 48 49 48 47 45 39 45 40 20 31 19 10 10 4 8 8 14 36 23 46 71 51 25 19 19 24 36 45 39 39 42 33 24 19 27 16 10
47 47 49 48 49 52 54 54 50 48 46 48 48 49 48 48 37 28 18 21 6 6 16 12 11 21 9 27 42 13 42 61 33 9 15 19 30 47 42 33 40 17 4 5 22 6 21
50 48 45 46 50 57 58 57 54 51 49 52 51 50 46 41 39 28 27 12 6 11 8 2 20 30 17 23 16 19 19 35 34 26 32 11 26 10 21 30 13 25 13 8 6 9 13
51 48 46 47 53 59 59 59 55 56 54 52 56 48 43 33 23 18 3 3 12 10 24 29 33 27 11 35 16 23 22 26 46 29 21 29 22 44 29 29 25 27 28 11 10 7 9
48 49 50 51 55 58 57 58 57 58 55 54 51 48 21 26 6 16 9 9 7 6 13 23 28 14 12 28 14 20 12 26 16 37 13 25 31 4 38 11 31 33 30 25 4 5 3
48 50 52 54 56 56 55 56 58 58 55 54 52 38 16 23 12 18 1 10 8 12 20 20 12 13 21 26 18 26 11 22 23 14 5 5 9 17 36 40 34 18 21 15 11 11 10
49 51 53 57 58 58 53 55 58 58 57 52 36 16 16 4 20 5 4 9 9 27 27 10 11 15 18 22 7 14 11 16 35 36 21 7 4 6 18 30 37 17 22 9 14 10 11
48 51 55 58 60 57 55 57 56 58 57 56 17 6 17 10 3 2 3 8 11 17 21 12 11 18 21 21 17 7 17 19 32 29 18 11 10 10 21 10 39 38 33 18 21 18 11
50 53 57 59 61 61 56 53 55 54 53 53 23 10 14 4 3 2 6 11 11 14 18 8 8 8 22 23 13 2 11 19 28 29 27 15 10 14 12 4 6 46 41 44 6 7 14
51 54 58 61 63 62 56 49 51 49 46 42 12 6 9 7 6 5 9 11 7 21 20 15 12 9 19 19 19 14 24 18 39 42 28 14 9 26 28 6 11 27 45 17 33 18 15
54 54 57 63 64 61 56 46 46 45 42 27 10 6 7 6 8 13 5 8 13 16 11 25 8 9 6 11 16 24 26 29 26 34 8 7 9 11 35 40 17 8 23 45 36 27 31
56 56 55 59 62 59 56 43 39 44 37 16 11 9 10 16 20 9 6 4 17 13 6 14 9 16 7 9 15 19 27 19 15 12 12 9 8 13 13 35 47 36 11 41 45 29 24
58 60 56 55 58 57 53 48 33 38 35 12 14 15 12 10 10 5 5 10 18 25 13 23 27 20 14 22 21 37 41 39 24 12 12 9 7 19 11 27 17 29 53 24 25 37 35
59 61 59 54 54 55 50 51 34 27 29 24 15 19 7 7 5 6 16 25 24 23 17 32 35 8 8 43 57 31 34 26 15 18 21 18 2 5 10 4 22 37 23 35 23 16 28
59 60 61 55 52 53 56 51 42 21 23 24 17 13 5 7 14 23 15 15 33 34 12 24 35 35 42 19 6 8 4 6 17 28 26 34 10 6 6 8 10 14 7 24 19 25 21
59 61 62 57 52 59 60 55 46 22 18 25 20 14 21 10 7 19 23 25 12 8 11 12 43 21 15 4 4 6 5 4 6 3 13 21 22 11 4 8 15 11 28 5 11 26 18
60 61 62 57 56 65 61 55 40 24 17 23 23 12 20 15 30 17 13 15 14 8 8 16 19 14 22 5 2 5 7 1 5 4 5 6 8 18 11 8 8 36 40 26 25 5 38
62 63 59 53 65 67 62 51 33 22 16 22 24 15 18 19 57 51 44 21 27 30 6 15 18 2 6 7 4 5 4 1 4 5 9 4 9 7 8 9 6 43 15 15 22 55 51
64 62 52 59 68 67 62 49 30 22 16 21 30 13 16 32 52 69 78 67 64 45 42 12 6 5 5 2 2 6 4 4 4 5 7 6 4 4 7 5 3 37 18 39 47 46 52
Wind_Direction_850mb
8 3 4 359 359 355 351 347 345 345 343 340 337 336 334 323 313 307 298 285 277 274 274 275 275 274 274 243 236 205 199 199 234 267 230 203 201 208 220 203 234 191 245 247 263 278 278
7 1 357 352 344 338 340 340 341 341 339 337 333 330 329 328 325 319 312 303 291 280 274 273 276 279 272 249 254 246 230 230 235 255 248 211 211 213 240 241 222 251 256 268 266 263 273
5 3 358 349 343 342 337 335 333 333 333 331 330 330 328 325 320 320 319 311 302 290 281 275 274 272 257 247 245 246 242 248 242 242 239 237 226 198 222 300 282 278 284 280 260 266 261
357 353 351 347 345 342 339 335 331 328 327 325 324 322 320 321 320 320 317 314 304 298 286 283 269 263 256 258 261 249 243 240 230 234 234 232 240 247 239 256 312 337 292 271 270 253 257
353 352 348 346 343 338 337 335 332 331 327 325 323 322 321 318 313 313 314 311 310 297 277 260 255 234 275 273 253 257 244 239 233 230 221 223 219 220 190 202 309 255 260 264 278 251 260
350 346 344 339 335 331 333 331 328 327 327 326 325 323 319 318 318 314 310 313 317 307 281 196 222 241 253 248 268 254 251 235 228 232 221 209 206 178 149 151 222 218 230 259 255 140 226
355 352 350 346 342 335 333 330 327 327 323 321 320 321 322 321 316 318 312 332 342 323 314 224 215 218 101 27 237 280 233 198 205 205 183 176 196 206 207 206 225 236 222 246 260 193 233
353 350 345 343 339 340 337 333 332 329 328 326 322 319 317 318 316 318 308 306 19 327 299 284 267 248 260 272 297 251 215 151 176 202 158 167 226 207 204 208 217 241 247 253 283 272 245
355 350 344 340 348 344 341 338 336 333 330 327 323 320 319 316 312 312 294 300 334 335 266 277 252 243 237 242 227 251 198 178 172 187 192 203 225 200 203 206 203 222 230 246 250 333 265
1 357 357 354 350 347 343 340 337 334 332 329 326 323 322 318 314 302 310 297 323 312 286 272 217 251 220 216 227 233 218 186 188 200 199 230 224 196 198 212 197 224 215 242 259 276 264
4 358 356 356 354 351 346 342 336 333 330 328 327 325 321 317 300 294 307 303 306 164 296 230 134 34 282 184 153 220 215 215 209 165 171 210 184 212 211 205 200 230 224 226 247 234 258
3 0 358 358 359 357 350 345 339 332 330 330 330 327 318 311 296 326 320 317 303 182 244 308 63 350 43 221 244 281 174 207 209 223 229 214 202 201 213 202 208 206 248 261 252 239 254
4 2 4 4 2 356 351 345 337 331 326 325 324 325 312 297 280 308 311 323 206 223 285 28 354 341 340 337 218 243 240 190 187 196 215 163 222 223 176 206 173 202 130 254 276 219 229
7 4 4 0 357 355 352 352 349 343 334 329 327 325 318 313 297 275 333 144 236 249 256 350 352 330 54 7 342 340 234 206 215 195 187 203 210 211 179 197 193 212 182 172 200 209 193
7 4 2 358 355 354 354 353 348 350 350 343 337 335 359 353 240 163 186 208 238 307 18 348 337 351 353 355 340 351 331 239 226 216 185 200 229 180 188 150 173 201 206 181 30 291 132
7 6 3 -0 357 354 354 354 353 352 353 345 339 340 8 353 160 158 146 258 292 333 352 2 6 354 331 335 350 4 312 33 348 297 195 276 193 218 202 197 202 173 161 174 200 204 219
8 5 2 360 359 357 354 353 353 353 355 352 346 343 4 90 161 147 219 235 296 303 316 338 327 309 300 300 0 357 295 318 14 347 321 200 145 263 196 203 182 176 179 177 156 199 174
6 4 3 1 360 357 353 352 351 353 355 356 355 342 344 164 75 225 275 317 321 301 302 280 256 246 273 315 312 315 271 323 357 2 351 284 209 207 235 250 193 204 199 188 194 194 240
5 2 360 359 357 356 354 354 353 354 354 353 350 309 355 237 65 348 256 269 263 276 279 273 292 308 291 287 317 348 295 313 317 9 338 330 275 251 339 211 183 199 198 215 149 102 190
2 0 358 357 356 355 353 355 356 358 357 354 359 336 338 39 52 292 330 288 290 305 299 263 260 295 290 287 270 284 282 286 305 315 336 334 280 234 218 238 139 196 204 173 194 217 211
354 356 355 352 353 354 354 355 355 355 358 5 14 313 331 313 324 311 279 286 308 321 288 278 288 231 312 279 298 280 274 289 279 307 334 33 276 307 266 252 275 189 189 201 204 198 202
346 347 350 350 349 352 352 353 357 357 0 21 4 339 330 289 295 289 280 280 309 325 272 319 301 314 303 255 257 283 290 285 287 290 345 347 283 323 259 243 241 250 248 202 215 209 227
345 342 345 349 346 346 351 350 353 356 1 13 337 323 310 290 314 347 258 339 301 318 263 231 280 304 270 259 272 290 279 270 243 212 247 295 336 351 278 230 239 252 239 225 208 206 199
348 345 343 349 347 344 346 348 347 347 346 345 354 323 295 286 263 248 288 302 293 303 275 283 294 259 251 312 310 284 252 241 219 217 225 254 85 238 276 203 206 247 222 223 212 215 215
349 347 343 345 346 344 343 342 342 330 332 332 327 305 274 276 278 294 300 296 305 297 267 283 290 299 304 299 264 278 203 210 241 234 222 221 181 265 251 249 275 235 234 195 176 245 212
346 346 343 342 344 343 342 340 335 329 309 311 323 295 269 290 262 301 307 285 297 307 321 270 318 339 341 207 198 242 246 319 186 211 358 252 188 195 276 237 212 32 331 342 119 239 208
345 345 343 341 344 342 341 338 330 324 306 295 302 299 279 262 279 272 268 294 288 283 276 295 325 338 354 22 149 218 235 171 210 119 49 90 127 225 262 287 296 345 325 304 183 258 320
346 346 344 344 345 343 343 342 330 318 298 289 294 273 262 264 288 268 261 248 266 290 262 302 330 8 319 23 306 318 303 271 101 73 96 351 313 183 200 240 252 348 17 49 313 321 308
348 348 347 346 346 344 345 345 330 321 304 275 289 296 261 275 266 294 289 278 267 268 261 258 257 286 254 315 328 291 279 301 191 165 202 208 197 323 271 267 44 345 342 333 328 326 324